{"data":{"norad_id":65737,"epoch":"2026-09-20T05:32:27.472128Z","epoch_age_seconds":131785,"freshness":"FRESH","line1":"1 65737U 25216D   26263.23087352  .00011812  00000+0  36032-3 0  9992","line2":"2 65737  53.1573 146.7923 0001159  83.7538 276.3597 15.34388172 56367","mean_motion":15.34388172,"eccentricity":0.0001159,"inclination_deg":53.1573,"raan_deg":146.7923,"arg_perigee_deg":83.7538,"mean_anomaly_deg":276.3597,"bstar":0.00036032,"rev_number":5636,"period_min":93.848481517101,"perigee_km":461.94553828321,"apogee_km":463.53125319994,"semimajor_km":6840.8753957416,"source":"CELESTRAK","updated_at":"2026-09-21T09:00:35.691831Z"}}